Accueil
METAR-TAF:

METAR-TAF

Aéroports :

Comté de Franklin, Vermont, États-Unis

latitude: 44-56-25N, longitude: 073-05-51W, altitude: 69 m

Observation

Le bulletin a été fait il y a 22 minutes, à 18:55 UTC
Vent 4 kt de nord/nord-ouest
Température 30°C
Humidité 49%
Pression 1014 hPa
Visibilité: 16.1 km
Ciel clair

METAR: KFSO 151855Z AUTO 34004KT 10SM CLR 30/18 A2995 RMK AO2 T02970175

Heure: 15:17 (19:17 UTC)


TAF: absent

Observations et prévisions météorologiques de plus de 4000 aéroports (messages METAR et TAF).

Les stations disponibles sont représentées par des disques jaunes et rouges sur la carte.

Passer la souris dessus pour voir le nom de la station.

Cliquer dessus pour voir les observations et prévisions météorologiques.

Pour changer de carte: cliquez sur les boutons verts avec une croix noire pour zoomer, sur le bouton vert avec un tiret pour effectuer un zoom arrière, ou sur les flèches vertes pour les cartes adjacentes.


METAR-TAF: